Regional Weather Roundup
Issued by NWS Kansas City/Pleasant Hill, MO

Home | Current Version | Previous Version | Graphics & Text | Print | Product List | Glossary Off
Versions: 1 2 3 4 5 6 7 8 9 10 11 12 13 14 15 16 17 18 19 20 21 22 23 24 25 26 27 28 29 30 31 32 33 34 35 36 37 38 39 40 41 42 43 44 45 46 47 48 49 50

000
ASUS43 KEAX 251604
RWREAX

WEATHER ROUNDUP FOR EASTERN KANSAS AND NORTHWEST MISSOURI
NATIONAL WEATHER SERVICE KANSAS CITY/PLEASANT HILL MO
1100 AM CDT FRI JUL 25 2014

KSZ040-057-103>105-MOZ028-029-037-043-251700-
...KANSAS CITY METROPOLITAN AREA...

CITY           SKY/WX    TMP DP  RH WIND       PRES   REMARKS
K.C. INTL      PTSUNNY   83  73  72 S16       29.85S
K.C. DOWNTOWN  MOSUNNY   86  71  60 S14G25    29.84F HX  91
LEES SUMMIT    MOSUNNY   82  71  69 SW16G26   29.88S
OLATHE - IXD   MOSUNNY   87  71  58 SW18G26   29.88F HX  93
OLATHE - OJC   MOSUNNY   84  71  65 S13G25    29.87F
LAWRENCE       MOSUNNY   87  71  58 S12G24    29.84F HX  93

$$

MOZ001>008-011>017-020>025-030>033-038>040-044>046-053-054-251700-
...NORTHERN AND CENTRAL MISSOURI...

CITY           SKY/WX    TMP DP  RH WIND       PRES   REMARKS
ST. JOSEPH     MOSUNNY   84  73  69 SW12G22   29.83R HX  90
MOSBY          PTSUNNY   82  70  65 S12       29.85F
WHITEMAN AFB   PTSUNNY   81  61  51 SW21G26   29.89F
CLINTON        MOSUNNY   82  73  74 SW14G20   29.92F
SEDALIA        PTSUNNY   81  69  67 S14G24    29.93F
WARSAW         NOT AVBL
MARSHALL       CLOUDY    81  72  74 S13       29.92F
CHILLICOTHE      N/A     77  65  66 E7        29.92S
KIRKSVILLE     CLOUDY    66  61  84 SE18      29.96F

$$

MOZ041-047>049-056>058-063>065-088>090-097-251700-
...EASTERN AND SOUTHERN MISSOURI...

CITY           SKY/WX    TMP DP  RH WIND       PRES   REMARKS
ST. LOUIS INTL CLOUDY    75  58  55 SE9       30.05F
SPIRIT OF STL  CLOUDY    73  59  61 SE6       30.03F
COLUMBIA       MOSUNNY   78  63  59 SE16      29.97F
JEFFERSON CITY CLOUDY    78  62  57 SE13      29.98F
HANNIBAL       RAIN      64  61  88 SE6G20    30.01F
ROLLA          MOSUNNY   80  60  50 S13G23    30.00F
LEBANON        SUNNY     81  66  61 S10       30.01F
OSAGE BEACH    SUNNY     81  66  61 S10G16    29.98F
SPRINGFIELD    PTSUNNY   79  70  74 S16       30.01F
BRANSON        MOSUNNY   84  68  58 S8        30.05S
NEVADA         MOSUNNY   82  72  69 S16       29.96F
JOPLIN         MOSUNNY   84  70  62 SW18      29.98F
WEST PLAINS    MOSUNNY   76  58  53 S8        30.08S

$$

IAZ060-094-KSZ022-034>040-054-083-096-NEZ052-066-093-251700-
...KANSAS...SOUTHEAST NEBRASKA AND IOWA...

CITY           SKY/WX    TMP DP  RH WIND       PRES   REMARKS
TOPEKA         MOSUNNY   87  70  56 SW10      29.83F HX  92
MANHATTAN      SUNNY     93  69  45 SW15G25   29.80F HX  98
EMPORIA        SUNNY     89  69  51 SW21      29.87S HX  93
CHANUTE        SUNNY     85  71  63 S17G25    29.93F HX  90
WICHITA        MOSUNNY   89  69  51 SW17G25   29.88F HX  93
OMAHA          SUNNY     80  67  64 SE15      29.78F
LINCOLN        SUNNY     90  69  50 SW13      29.76F HX  94
FALLS CITY     SUNNY     89  71  55 SW13      29.80S HX  95
LAMONI         PTSUNNY   70  60  70 E10G21    29.90F
DES MOINES     CLOUDY    68  59  73 SE15      29.90F

$$



USA.gov is the U.S. government's official web portal to all federal, state and local government web resources and services.